Location: Newark
(51.3318°N, 0.0053°E)
Time: 02:31:33
(UTC+00:00)

Tiangong - Visible Passes

Search period start: 07 December 2022 00:00
Search period end: 17 December 2022 00:00
Orbit: 386 x 393 km, 41.5° (Epoch: 06 December)

Date Brightness Start Highest point End Pass type
(mag) Time Alt. Az. Time Alt. Az. Time Alt. Az.
07 Dec 0.6 16:43:55 10° SSW 16:45:44 14° S 16:47:32 10° SE visible
07 Dec 0.7 18:20:47 10° SW 18:21:52 11° SSW 18:22:25 11° S visible
08 Dec 0.7 17:22:20 10° SW 17:23:56 13° S 17:25:33 10° SSE visible
10 Dec 1.0 17:03:08 10° SSW 17:04:03 11° SSW 17:04:58 10° S visible
